Simultaneous Nadir Overpasses (SNOs) Predictions

Prediction of SNOs between NPP and TERRA Satellite Orbit:

Table of predicted SNOs for the next 14.0 days since TLE Epoch: 3/23/2017
Index Date (NPP) Time (NPP) Lat,Lon (NPP) SZA (NPP ) Date (TERRA) Time (TERRA) Lat,Lon (TERRA) SZA (TERRA ) Distance(km) Time Diff (sec)
1 03/26/2017 10:39:05 -68.98,-161.96 113.46 03/26/2017 10:40:15 -68.84,-160.72 113.64 51.94 70
2 03/26/2017 11:29:38 68.28, 6.28 65.81 03/26/2017 11:29:50 68.27, 6.23 65.80 2.26 12
3 03/26/2017 12:20:20 -68.19, 173.72 114.30 03/26/2017 12:19:20 -68.18, 173.75 114.32 1.90 60
4 03/29/2017 02:55:47 -68.40, -45.40 115.11 03/29/2017 02:56:52 -68.41, -45.37 115.10 2.18 65
5 03/29/2017 03:46:30 68.24, 122.12 64.71 03/29/2017 03:46:20 68.24, 122.07 64.71 2.18 10
6 03/29/2017 04:37:06 -67.82, -70.04 115.73 03/29/2017 04:35:54 -67.92, -70.68 115.62 29.08 72
7 03/31/2017 19:12:38 -68.35, 70.44 116.20 03/31/2017 19:13:22 -68.33, 70.41 116.23 3.28 44
8 03/31/2017 20:03:21 68.19,-122.05 63.63 03/31/2017 20:02:49 68.20,-122.09 63.64 2.31 32
9 04/03/2017 10:39:02 69.16, 17.82 63.62 04/03/2017 10:40:10 69.06, 19.56 63.48 70.36 68
10 04/03/2017 11:29:30 -68.31,-173.72 117.28 04/03/2017 11:29:52 -68.30,-173.75 117.30 2.05 22
11 04/03/2017 12:20:13 68.15, -6.21 62.55 04/03/2017 12:19:19 68.17, -6.25 62.58 2.56 54
12 04/06/2017 02:55:41 68.43, 134.59 61.84 04/06/2017 02:56:51 68.42, 134.64 61.82 2.78 70
13 04/06/2017 03:46:22 -68.27, -57.89
